Time,TemperatureF,DewpointF,PressureIn,WindDirection,WindDirectionDegrees,WindSpeedMPH,WindSpeedGustMPH,Humidity,HourlyPrecipIn,Conditions,Clouds,dailyrainin,SoftwareType,DateUTC
2013-02-23 00:00:00,37.8,36.8,30.03,ESE,102,0.0,1.0,96,0.02,,BKN055,0.80,VWS V14.01,2013-02-23 08:00:00,
2013-02-23 00:05:00,37.8,36.8,30.03,ESE,102,0.0,1.0,96,0.02,,OVC050,0.00,VWS V14.01,2013-02-23 08:05:00,
2013-02-23 00:10:00,37.8,36.8,30.03,SW,227,0.0,2.0,96,0.03,,OVC050,0.01,VWS V14.01,2013-02-23 08:10:00,
2013-02-23 00:15:00,37.8,36.8,30.04,NE,38,0.0,1.0,96,0.03,,OVC050,0.01,VWS V14.01,2013-02-23 08:15:00,
2013-02-23 00:20:00,37.9,36.9,30.03,NNW,334,1.0,2.0,96,0.03,,OVC050,0.01,VWS V14.01,2013-02-23 08:20:00,
2013-02-23 00:25:00,37.9,36.9,30.03,NW,306,1.0,2.0,96,0.02,,OVC050,0.01,VWS V14.01,2013-02-23 08:25:00,
2013-02-23 00:30:00,38.0,37.0,30.04,WNW,303,0.0,0.0,96,0.01,,OVC050,0.01,VWS V14.01,2013-02-23 08:30:00,
2013-02-23 00:35:00,37.9,36.9,30.04,ENE,77,0.0,0.0,96,0.01,,OVC050,0.01,VWS V14.01,2013-02-23 08:35:00,
2013-02-23 00:40:00,37.9,36.9,30.04,NW,317,0.0,2.0,96,0.01,,OVC050,0.01,VWS V14.01,2013-02-23 08:40:00,
2013-02-23 00:45:00,37.9,36.9,30.04,NW,304,2.0,3.0,96,0.01,,OVC065,0.01,VWS V14.01,2013-02-23 08:45:00,
2013-02-23 00:50:00,38.1,37.1,30.04,NNE,23,2.0,2.0,96,0.01,,OVC065,0.01,VWS V14.01,2013-02-23 08:50:00,
2013-02-23 00:55:00,38.3,37.3,30.04,NNE,30,0.0,1.0,96,0.01,,OVC065,0.01,VWS V14.01,2013-02-23 08:55:00,
2013-02-23 01:00:00,38.3,37.0,30.04,NE,46,0.0,0.0,95,0.01,,OVC065,0.01,VWS V14.01,2013-02-23 09:00:00,
2013-02-23 01:05:00,38.3,37.0,30.04,NW,316,0.0,1.0,95,0.02,,OVC050,0.02,VWS V14.01,2013-02-23 09:05:00,
2013-02-23 01:10:00,38.3,37.0,30.04,WNW,303,1.0,1.0,95,0.03,,OVC050,0.03,VWS V14.01,2013-02-23 09:10:00,
2013-02-23 01:15:00,38.4,37.1,30.05,NNE,17,2.0,2.0,95,0.03,,OVC050,0.04,VWS V14.01,2013-02-23 09:15:00,
2013-02-23 01:20:00,38.3,37.0,30.05,NE,44,8.0,10.0,95,0.05,,OVC050,0.06,VWS V14.01,2013-02-23 09:20:00,
2013-02-23 01:25:00,38.0,36.4,30.06,East,83,1.0,1.0,94,0.07,,OVC043,0.08,VWS V14.01,2013-02-23 09:25:00,
2013-02-23 01:30:00,37.8,36.5,30.06,East,84,0.0,0.0,95,0.08,,OVC043,0.09,VWS V14.01,2013-02-23 09:30:00,
2013-02-23 01:35:00,37.6,36.3,30.06,East,84,0.0,0.0,95,0.08,,OVC043,0.09,VWS V14.01,2013-02-23 09:35:00,
2013-02-23 01:40:00,37.5,36.2,30.05,East,84,1.0,1.0,95,0.08,,OVC043,0.09,VWS V14.01,2013-02-23 09:40:00,
2013-02-23 01:45:00,37.4,36.1,30.05,NW,304,0.0,0.0,95,0.08,,OVC026,0.09,VWS V14.01,2013-02-23 09:45:00,
2013-02-23 01:50:00,37.3,36.3,30.05,SSW,206,0.0,0.0,96,0.08,,OVC026,0.09,VWS V14.01,2013-02-23 09:50:00,
2013-02-23 01:55:00,37.2,36.2,30.05,SSW,206,0.0,0.0,96,0.08,,OVC026,0.09,VWS V14.01,2013-02-23 09:55:00,
2013-02-23 02:00:00,37.3,36.3,30.05,NW,308,0.0,0.0,96,0.08,,OVC026,0.09,VWS V14.01,2013-02-23 10:00:00,
2013-02-23 02:05:00,37.4,36.4,30.06,NW,306,0.0,0.0,96,0.07,,OVC031,0.09,VWS V14.01,2013-02-23 10:05:00,
2013-02-23 02:10:00,37.5,36.5,30.06,WSW,254,1.0,1.0,96,0.06,,OVC031,0.09,VWS V14.01,2013-02-23 10:10:00,
2013-02-23 02:15:00,37.6,36.6,30.06,SW,224,0.0,1.0,96,0.05,,OVC031,0.09,VWS V14.01,2013-02-23 10:15:00,
2013-02-23 02:20:00,37.6,36.6,30.06,WNW,296,0.0,1.0,96,0.03,,OVC031,0.09,VWS V14.01,2013-02-23 10:20:00,
2013-02-23 02:25:00,37.7,36.7,30.06,SSW,210,0.0,0.0,96,0.02,,OVC029,0.10,VWS V14.01,2013-02-23 10:25:00,
2013-02-23 02:30:00,37.6,36.6,30.06,SSW,210,1.0,1.0,96,0.01,,OVC029,0.10,VWS V14.01,2013-02-23 10:30:00,
2013-02-23 02:35:00,37.6,36.6,30.06,SSW,210,0.0,1.0,96,0.02,,OVC029,0.11,VWS V14.01,2013-02-23 10:35:00,
2013-02-23 02:40:00,37.6,36.6,30.06,NE,50,0.0,0.0,96,0.03,,OVC029,0.12,VWS V14.01,2013-02-23 10:40:00,
2013-02-23 02:45:00,37.5,36.5,30.06,SSW,206,2.0,2.0,96,0.04,,OVC027,0.13,VWS V14.01,2013-02-23 10:45:00,
2013-02-23 02:50:00,37.5,36.5,30.07,SSW,213,0.0,0.0,96,0.05,,OVC027,0.14,VWS V14.01,2013-02-23 10:50:00,
2013-02-23 02:55:00,37.5,36.5,30.07,SW,219,0.0,5.0,96,0.05,,OVC027,0.14,VWS V14.01,2013-02-23 10:55:00,
2013-02-23 03:00:00,37.6,36.6,30.07,SW,223,0.0,3.0,96,0.06,,OVC027,0.15,VWS V14.01,2013-02-23 11:00:00,
2013-02-23 03:05:00,37.6,36.6,30.07,NNW,330,2.0,3.0,96,0.06,,OVC023,0.15,VWS V14.01,2013-02-23 11:05:00,
2013-02-23 03:10:00,37.7,36.7,30.07,NW,309,0.0,0.0,96,0.07,,OVC023,0.16,VWS V14.01,2013-02-23 11:10:00,
2013-02-23 03:15:00,37.7,36.7,30.07,SE,137,0.0,1.0,96,0.07,,OVC023,0.16,VWS V14.01,2013-02-23 11:15:00,
2013-02-23 03:20:00,37.7,36.7,30.07,WNW,303,2.0,2.0,96,0.08,,OVC023,0.17,VWS V14.01,2013-02-23 11:20:00,
2013-02-23 03:25:00,37.7,36.7,30.07,NW,316,1.0,2.0,96,0.07,,OVC018,0.17,VWS V14.01,2013-02-23 11:25:00,
2013-02-23 03:30:00,37.7,36.7,30.07,WSW,256,1.0,2.0,96,0.07,,OVC018,0.17,VWS V14.01,2013-02-23 11:30:00,
2013-02-23 03:35:00,37.8,36.8,30.07,SSW,206,0.0,2.0,96,0.06,,OVC018,0.17,VWS V14.01,2013-02-23 11:35:00,
2013-02-23 03:40:00,37.9,36.9,30.07,NNE,25,0.0,1.0,96,0.05,,OVC018,0.17,VWS V14.01,2013-02-23 11:40:00,
2013-02-23 03:45:00,37.8,36.8,30.07,ESE,102,0.0,1.0,96,0.05,,OVC016,0.18,VWS V14.01,2013-02-23 11:45:00,
2013-02-23 03:50:00,37.9,36.9,30.08,SE,142,0.0,1.0,96,0.05,,OVC016,0.19,VWS V14.01,2013-02-23 11:50:00,
2013-02-23 03:55:00,37.9,36.9,30.08,SE,142,0.0,1.0,96,0.05,,OVC016,0.19,VWS V14.01,2013-02-23 11:55:00,
2013-02-23 04:00:00,37.9,36.9,30.08,WSW,238,3.0,3.0,96,0.05,,OVC016,0.20,VWS V14.01,2013-02-23 12:00:00,
2013-02-23 04:05:00,37.9,36.9,30.09,NE,48,0.0,2.0,96,0.05,,OVC023,0.20,VWS V14.01,2013-02-23 12:05:00,
2013-02-23 04:10:00,37.9,36.9,30.09,South,191,0.0,1.0,96,0.04,,OVC023,0.20,VWS V14.01,2013-02-23 12:10:00,
2013-02-23 04:15:00,38.0,37.0,30.09,South,191,0.0,1.0,96,0.04,,OVC023,0.20,VWS V14.01,2013-02-23 12:15:00,
2013-02-23 04:20:00,38.0,37.0,30.09,SSW,196,0.0,0.0,96,0.03,,OVC023,0.20,VWS V14.01,2013-02-23 12:20:00,
2013-02-23 04:25:00,38.0,37.0,30.09,SW,214,0.0,1.0,96,0.03,,OVC030,0.20,VWS V14.01,2013-02-23 12:25:00,
2013-02-23 04:30:00,38.0,37.0,30.09,NW,308,2.0,2.0,96,0.03,,OVC030,0.20,VWS V14.01,2013-02-23 12:30:00,
2013-02-23 04:35:00,38.0,37.0,30.09,NW,308,1.0,3.0,96,0.03,,OVC030,0.20,VWS V14.01,2013-02-23 12:35:00,
2013-02-23 04:40:00,38.0,37.0,30.10,WNW,288,0.0,4.0,96,0.04,,OVC030,0.21,VWS V14.01,2013-02-23 12:40:00,
2013-02-23 04:45:00,38.0,37.0,30.10,SW,232,2.0,3.0,96,0.03,,OVC046,0.21,VWS V14.01,2013-02-23 12:45:00,
2013-02-23 04:50:00,38.1,37.1,30.10,South,172,1.0,2.0,96,0.03,,OVC046,0.22,VWS V14.01,2013-02-23 12:50:00,
2013-02-23 04:55:00,38.1,37.1,30.11,SSW,209,0.0,0.0,96,0.03,,OVC046,0.22,VWS V14.01,2013-02-23 12:55:00,
2013-02-23 05:00:00,38.1,37.1,30.10,WSW,245,4.0,4.0,96,0.02,,OVC046,0.22,VWS V14.01,2013-02-23 13:00:00,
2013-02-23 05:05:00,38.1,37.1,30.10,SSW,207,0.0,2.0,96,0.02,,OVC034,0.22,VWS V14.01,2013-02-23 13:05:00,
2013-02-23 05:10:00,38.1,37.1,30.10,WSW,246,0.0,2.0,96,0.02,,OVC034,0.22,VWS V14.01,2013-02-23 13:10:00,
2013-02-23 05:15:00,38.1,37.1,30.10,SSE,167,0.0,2.0,96,0.02,,OVC034,0.22,VWS V14.01,2013-02-23 13:15:00,
2013-02-23 05:20:00,38.0,37.0,30.10,WSW,252,1.0,4.0,96,0.02,,OVC034,0.22,VWS V14.01,2013-02-23 13:20:00,
2013-02-23 05:25:00,37.9,36.9,30.11,West,270,1.0,7.0,96,0.02,,BKN031,0.22,VWS V14.01,2013-02-23 13:25:00,
2013-02-23 05:30:00,37.9,36.9,30.12,SSW,207,1.0,2.0,96,0.02,,BKN031,0.22,VWS V14.01,2013-02-23 13:30:00,
2013-02-23 05:35:00,37.9,36.9,30.12,WSW,246,1.0,3.0,96,0.02,,BKN031,0.22,VWS V14.01,2013-02-23 13:35:00,
2013-02-23 05:40:00,38.0,37.0,30.12,SW,223,1.0,3.0,96,0.01,,BKN031,0.22,VWS V14.01,2013-02-23 13:40:00,
2013-02-23 05:45:00,38.0,37.0,30.12,NW,315,2.0,4.0,96,0.01,,OVC033,0.22,VWS V14.01,2013-02-23 13:45:00,
2013-02-23 05:50:00,38.0,37.0,30.13,NW,311,1.0,2.0,96,0.01,,OVC033,0.22,VWS V14.01,2013-02-23 13:50:00,
2013-02-23 05:55:00,38.0,37.0,30.13,West,259,0.0,0.0,96,0.00,,OVC033,0.22,VWS V14.01,2013-02-23 13:55:00,
2013-02-23 06:00:00,38.0,37.0,30.13,WSW,245,3.0,4.0,96,0.00,,OVC033,0.22,VWS V14.01,2013-02-23 14:00:00,
2013-02-23 06:05:00,38.0,37.0,30.13,WSW,246,1.0,5.0,96,0.00,,OVC028,0.22,VWS V14.01,2013-02-23 14:05:00,
2013-02-23 06:10:00,38.0,37.0,30.14,SW,230,3.0,3.0,96,0.00,,OVC028,0.22,VWS V14.01,2013-02-23 14:10:00,
2013-02-23 06:15:00,38.0,37.0,30.14,WSW,245,0.0,4.0,96,0.00,,OVC028,0.22,VWS V14.01,2013-02-23 14:15:00,
2013-02-23 06:20:00,38.0,37.0,30.14,WSW,252,2.0,2.0,96,0.00,,OVC028,0.22,VWS V14.01,2013-02-23 14:20:00,
2013-02-23 06:25:00,38.0,37.0,30.14,WSW,249,1.0,1.0,96,0.00,,OVC030,0.22,VWS V14.01,2013-02-23 14:25:00,
2013-02-23 06:30:00,38.0,37.0,30.15,SW,225,0.0,2.0,96,0.00,,OVC030,0.22,VWS V14.01,2013-02-23 14:30:00,
2013-02-23 06:35:00,38.0,37.0,30.15,South,178,1.0,2.0,96,0.00,,OVC030,0.22,VWS V14.01,2013-02-23 14:35:00,
2013-02-23 06:40:00,38.0,37.0,30.16,SSW,210,2.0,3.0,96,0.01,,OVC030,0.23,VWS V14.01,2013-02-23 14:40:00,
2013-02-23 06:45:00,38.2,37.2,30.16,ENE,72,2.0,3.0,96,0.03,,OVC044,0.25,VWS V14.01,2013-02-23 14:45:00,
2013-02-23 06:50:00,38.2,37.2,30.16,NNE,19,0.0,1.0,96,0.03,,OVC044,0.25,VWS V14.01,2013-02-23 14:50:00,
2013-02-23 06:55:00,38.2,37.2,30.16,ESE,107,0.0,1.0,96,0.03,,OVC044,0.25,VWS V14.01,2013-02-23 14:55:00,
2013-02-23 07:00:00,38.0,37.0,30.16,South,182,1.0,1.0,96,0.03,,OVC044,0.25,VWS V14.01,2013-02-23 15:00:00,
2013-02-23 07:05:00,38.0,37.0,30.17,South,182,0.0,0.0,96,0.03,,OVC040,0.25,VWS V14.01,2013-02-23 15:05:00,
2013-02-23 07:10:00,37.9,36.9,30.17,South,182,1.0,1.0,96,0.04,,OVC040,0.26,VWS V14.01,2013-02-23 15:10:00,
2013-02-23 07:15:00,37.9,36.9,30.17,South,182,0.0,1.0,96,0.04,,OVC040,0.26,VWS V14.01,2013-02-23 15:15:00,
2013-02-23 07:20:00,37.9,36.9,30.18,South,182,1.0,1.0,96,0.05,,OVC040,0.27,VWS V14.01,2013-02-23 15:20:00,
2013-02-23 07:25:00,38.0,37.0,30.18,WSW,257,0.0,0.0,96,0.05,,OVC035,0.27,VWS V14.01,2013-02-23 15:25:00,
2013-02-23 07:30:00,38.0,37.2,30.18,South,187,0.0,0.0,97,0.05,,OVC035,0.27,VWS V14.01,2013-02-23 15:30:00,
2013-02-23 07:35:00,38.1,37.1,30.18,South,187,0.0,0.0,96,0.05,,OVC035,0.27,VWS V14.01,2013-02-23 15:35:00,
2013-02-23 07:40:00,38.2,37.4,30.19,South,187,0.0,0.0,97,0.04,,OVC035,0.27,VWS V14.01,2013-02-23 15:40:00,
2013-02-23 07:45:00,38.2,37.4,30.19,South,187,0.0,0.0,97,0.02,,OVC032,0.27,VWS V14.01,2013-02-23 15:45:00,
2013-02-23 07:50:00,38.3,37.5,30.19,South,187,0.0,0.0,97,0.02,,OVC032,0.27,VWS V14.01,2013-02-23 15:50:00,
2013-02-23 07:55:00,38.4,37.6,30.19,South,187,1.0,1.0,97,0.03,,OVC032,0.28,VWS V14.01,2013-02-23 15:55:00,
2013-02-23 08:00:00,38.5,37.7,30.20,WSW,258,2.0,3.0,97,0.04,,OVC032,0.29,VWS V14.01,2013-02-23 16:00:00,
2013-02-23 08:05:00,38.6,37.8,30.20,NW,304,2.0,3.0,97,0.05,,OVC020,0.30,VWS V14.01,2013-02-23 16:05:00,
2013-02-23 08:10:00,38.6,37.8,30.20,ENE,61,2.0,2.0,97,0.05,,OVC020,0.31,VWS V14.01,2013-02-23 16:10:00,
2013-02-23 08:15:00,38.7,37.9,30.21,SW,224,0.0,1.0,97,0.05,,OVC020,0.31,VWS V14.01,2013-02-23 16:15:00,
2013-02-23 08:20:00,38.8,38.0,30.21,SW,225,1.0,1.0,97,0.04,,OVC020,0.31,VWS V14.01,2013-02-23 16:20:00,
2013-02-23 08:25:00,38.9,38.1,30.21,SW,225,1.0,1.0,97,0.04,,OVC019,0.31,VWS V14.01,2013-02-23 16:25:00,
2013-02-23 08:30:00,39.1,38.3,30.22,SW,215,1.0,1.0,97,0.04,,OVC019,0.31,VWS V14.01,2013-02-23 16:30:00,
2013-02-23 08:35:00,39.0,38.2,30.22,SW,216,1.0,1.0,97,0.04,,OVC019,0.31,VWS V14.01,2013-02-23 16:35:00,
2013-02-23 08:40:00,39.0,38.2,30.22,SW,215,0.0,0.0,97,0.05,,OVC019,0.32,VWS V14.01,2013-02-23 16:40:00,
2013-02-23 08:45:00,39.1,38.3,30.22,SW,215,0.0,0.0,97,0.06,,OVC060,0.33,VWS V14.01,2013-02-23 16:45:00,
2013-02-23 08:50:00,39.3,38.5,30.23,SW,215,0.0,0.0,97,0.06,,OVC060,0.33,VWS V14.01,2013-02-23 16:50:00,
2013-02-23 08:55:00,39.4,38.6,30.23,SW,215,0.0,1.0,97,0.05,,OVC060,0.33,VWS V14.01,2013-02-23 16:55:00,
2013-02-23 09:00:00,39.5,38.7,30.23,SW,216,0.0,1.0,97,0.04,,OVC060,0.33,VWS V14.01,2013-02-23 17:00:00,
2013-02-23 09:05:00,39.7,38.9,30.24,SW,215,0.0,0.0,97,0.03,,OVC060,0.33,VWS V14.01,2013-02-23 17:05:00,
2013-02-23 09:10:00,39.8,39.0,30.24,SW,216,0.0,0.0,97,0.02,,OVC060,0.33,VWS V14.01,2013-02-23 17:10:00,
2013-02-23 09:15:00,39.9,39.1,30.24,SW,215,0.0,0.0,97,0.02,,OVC060,0.33,VWS V14.01,2013-02-23 17:15:00,
2013-02-23 09:20:00,40.1,39.3,30.25,East,80,0.0,2.0,97,0.02,,OVC060,0.33,VWS V14.01,2013-02-23 17:20:00,
2013-02-23 09:25:00,40.0,39.2,30.25,ENE,67,1.0,2.0,97,0.03,,OVC060,0.34,VWS V14.01,2013-02-23 17:25:00,
2013-02-23 09:30:00,40.1,39.3,30.25,ENE,67,1.0,1.0,97,0.03,,OVC060,0.34,VWS V14.01,2013-02-23 17:30:00,
2013-02-23 09:35:00,40.1,39.3,30.25,NE,43,3.0,3.0,97,0.03,,OVC060,0.34,VWS V14.01,2013-02-23 17:35:00,
2013-02-23 09:40:00,40.0,39.0,30.25,ENE,72,0.0,1.0,96,0.03,,OVC060,0.35,VWS V14.01,2013-02-23 17:40:00,
2013-02-23 09:45:00,40.1,39.0,30.26,NNW,333,0.0,1.0,96,0.02,,OVC055,0.35,VWS V14.01,2013-02-23 17:45:00,
2013-02-23 09:50:00,40.0,39.0,30.26,ESE,107,0.0,3.0,96,0.02,,OVC055,0.35,VWS V14.01,2013-02-23 17:50:00,
2013-02-23 09:55:00,40.1,39.0,30.26,ENE,70,1.0,2.0,96,0.02,,OVC055,0.35,VWS V14.01,2013-02-23 17:55:00,
2013-02-23 10:00:00,40.3,39.2,30.26,East,92,0.0,0.0,96,0.02,,OVC055,0.35,VWS V14.01,2013-02-23 18:00:00,
2013-02-23 10:04:00,40.9,39.8,30.26,ESE,121,3.0,3.0,96,0.02,,BKN047,0.35,VWS V14.01,2013-02-23 18:04:00,
2013-02-23 10:09:00,41.3,40.2,30.26,NE,44,2.0,5.0,96,0.02,,BKN047,0.35,VWS V14.01,2013-02-23 18:09:00,
2013-02-23 10:14:00,41.3,40.2,30.26,ENE,74,0.0,3.0,96,0.02,,BKN047,0.35,VWS V14.01,2013-02-23 18:14:00,
2013-02-23 10:19:00,41.8,40.8,30.26,ENE,67,0.0,2.0,96,0.02,,BKN047,0.35,VWS V14.01,2013-02-23 18:19:00,
2013-02-23 10:24:00,42.3,41.2,30.27,East,99,1.0,3.0,96,0.01,,OVC080,0.35,VWS V14.01,2013-02-23 18:24:00,
2013-02-23 10:29:00,42.7,41.4,30.27,ENE,63,1.0,4.0,95,0.01,,OVC080,0.35,VWS V14.01,2013-02-23 18:29:00,
2013-02-23 10:34:00,43.1,41.8,30.27,East,94,1.0,2.0,95,0.01,,OVC080,0.35,VWS V14.01,2013-02-23 18:34:00,
2013-02-23 10:39:00,43.3,41.7,30.27,NE,46,1.0,2.0,94,0.00,,OVC080,0.35,VWS V14.01,2013-02-23 18:39:00,
2013-02-23 10:44:00,44.1,42.2,30.27,NNW,346,2.0,3.0,93,0.00,,BKN050,0.35,VWS V14.01,2013-02-23 18:44:00,
2013-02-23 10:49:00,44.2,41.7,30.27,NE,46,1.0,2.0,91,0.00,,BKN050,0.35,VWS V14.01,2013-02-23 18:49:00,
2013-02-23 10:54:00,44.1,41.4,30.27,NNE,28,3.0,3.0,90,0.00,,BKN050,0.35,VWS V14.01,2013-02-23 18:54:00,
2013-02-23 10:59:00,43.9,41.2,30.27,South,169,2.0,2.0,90,0.00,,BKN050,0.35,VWS V14.01,2013-02-23 18:59:00,
2013-02-23 11:04:00,43.9,42.0,30.27,SSE,148,0.0,1.0,93,0.00,,BKN048,0.35,VWS V14.01,2013-02-23 19:04:00,
2013-02-23 11:09:00,44.0,42.1,30.27,SW,219,0.0,1.0,93,0.00,,BKN048,0.35,VWS V14.01,2013-02-23 19:09:00,
2013-02-23 11:14:00,43.9,41.5,30.27,ESE,113,1.0,3.0,91,0.00,,BKN048,0.35,VWS V14.01,2013-02-23 19:14:00,
2013-02-23 11:19:00,43.9,42.0,30.28,South,180,0.0,1.0,93,0.00,,BKN048,0.35,VWS V14.01,2013-02-23 19:19:00,
2013-02-23 11:24:00,44.0,42.1,30.28,SW,220,1.0,5.0,93,0.00,,BKN055,0.35,VWS V14.01,2013-02-23 19:24:00,
2013-02-23 11:29:00,43.8,41.9,30.28,East,101,2.0,4.0,93,0.00,,BKN055,0.35,VWS V14.01,2013-02-23 19:29:00,
2013-02-23 11:34:00,43.3,41.4,30.29,ESE,110,2.0,2.0,93,0.00,,BKN055,0.35,VWS V14.01,2013-02-23 19:34:00,
2013-02-23 11:39:00,42.8,40.1,30.29,ESE,118,4.0,9.0,90,0.00,,BKN055,0.35,VWS V14.01,2013-02-23 19:39:00,
2013-02-23 11:44:00,42.1,39.4,30.30,East,95,4.0,4.0,90,0.02,,BKN055,0.37,VWS V14.01,2013-02-23 19:44:00,
2013-02-23 11:49:00,40.7,38.0,30.29,NE,53,4.0,11.0,90,0.04,,BKN055,0.39,VWS V14.01,2013-02-23 19:49:00,
2013-02-23 11:54:00,40.6,38.2,30.29,SE,131,1.0,5.0,91,0.05,,BKN055,0.40,VWS V14.01,2013-02-23 19:54:00,
2013-02-23 11:59:00,40.7,38.6,30.30,ESE,116,6.0,10.0,92,0.05,,BKN055,0.40,VWS V14.01,2013-02-23 19:59:00,
2013-02-23 12:04:00,40.9,39.0,30.30,ESE,103,5.0,9.0,93,0.05,,OVC036,0.40,VWS V14.01,2013-02-23 20:04:00,
2013-02-23 12:09:00,40.7,38.8,30.30,East,88,3.0,4.0,93,0.05,,OVC036,0.40,VWS V14.01,2013-02-23 20:09:00,
2013-02-23 12:14:00,40.8,39.2,30.29,ENE,57,2.0,5.0,94,0.06,,OVC036,0.41,VWS V14.01,2013-02-23 20:14:00,
2013-02-23 12:19:00,41.0,39.4,30.29,ESE,112,2.0,4.0,94,0.06,,OVC036,0.41,VWS V14.01,2013-02-23 20:19:00,
2013-02-23 12:24:00,41.5,39.9,30.29,ESE,104,3.0,5.0,94,0.06,,OVC060,0.41,VWS V14.01,2013-02-23 20:24:00,
2013-02-23 12:29:00,42.0,40.4,30.29,ESE,109,1.0,1.0,94,0.06,,OVC060,0.41,VWS V14.01,2013-02-23 20:29:00,
2013-02-23 12:34:00,42.5,40.6,30.29,East,93,2.0,3.0,93,0.06,,OVC060,0.41,VWS V14.01,2013-02-23 20:34:00,
2013-02-23 12:39:00,43.2,41.3,30.29,ESE,111,3.0,4.0,93,0.06,,OVC060,0.41,VWS V14.01,2013-02-23 20:39:00,
2013-02-23 12:44:00,43.6,41.4,30.29,ESE,106,3.0,4.0,92,0.04,,BKN048,0.41,VWS V14.01,2013-02-23 20:44:00,
2013-02-23 12:49:00,43.8,41.1,30.28,ESE,121,3.0,3.0,90,0.02,,BKN048,0.41,VWS V14.01,2013-02-23 20:49:00,
2013-02-23 12:54:00,44.3,41.8,30.28,ENE,71,0.0,1.0,91,0.01,,BKN048,0.41,VWS V14.01,2013-02-23 20:54:00,
2013-02-23 12:59:00,44.8,41.8,30.28,NNW,347,4.0,5.0,89,0.01,,BKN048,0.41,VWS V14.01,2013-02-23 20:59:00,
2013-02-23 13:04:00,45.2,42.5,30.28,ENE,63,3.0,3.0,90,0.01,,BKN085,0.41,VWS V14.01,2013-02-23 21:04:00,
2013-02-23 13:09:00,45.3,41.7,30.28,East,79,3.0,4.0,87,0.01,,BKN085,0.41,VWS V14.01,2013-02-23 21:09:00,
2013-02-23 13:14:00,45.2,42.2,30.28,ESE,108,3.0,5.0,89,0.00,,BKN085,0.41,VWS V14.01,2013-02-23 21:14:00,
2013-02-23 13:19:00,45.5,42.7,30.28,ESE,123,2.0,4.0,90,0.00,,BKN085,0.41,VWS V14.01,2013-02-23 21:19:00,
2013-02-23 13:24:00,45.5,42.2,30.28,ENE,77,3.0,6.0,88,0.00,,BKN085,0.41,VWS V14.01,2013-02-23 21:24:00,
2013-02-23 13:29:00,45.5,41.3,30.28,ESE,105,12.0,14.0,85,0.00,,BKN085,0.41,VWS V14.01,2013-02-23 21:29:00,
2013-02-23 13:34:00,45.6,41.0,30.28,East,88,2.0,9.0,84,0.00,,BKN085,0.41,VWS V14.01,2013-02-23 21:34:00,
2013-02-23 13:39:00,45.4,41.2,30.29,ESE,102,2.0,9.0,85,0.00,,BKN085,0.41,VWS V14.01,2013-02-23 21:39:00,
2013-02-23 13:44:00,44.3,40.4,30.29,WSW,240,4.0,5.0,86,0.00,,SCT030,0.41,VWS V14.01,2013-02-23 21:44:00,
2013-02-23 13:49:00,43.6,40.3,30.29,East,101,0.0,2.0,88,0.00,,SCT030,0.41,VWS V14.01,2013-02-23 21:49:00,
2013-02-23 13:54:00,43.4,40.4,30.29,East,94,5.0,5.0,89,0.00,,SCT030,0.41,VWS V14.01,2013-02-23 21:54:00,
2013-02-23 13:59:00,43.1,39.8,30.29,East,82,4.0,10.0,88,0.00,,SCT030,0.41,VWS V14.01,2013-02-23 21:59:00,
2013-02-23 14:04:00,42.9,39.6,30.29,ESE,117,4.0,8.0,88,0.01,,BKN046,0.42,VWS V14.01,2013-02-23 22:04:00,
2013-02-23 14:09:00,42.9,38.4,30.29,East,80,3.0,11.0,84,0.01,,BKN046,0.42,VWS V14.01,2013-02-23 22:09:00,
2013-02-23 14:14:00,43.2,38.7,30.29,ESE,111,3.0,9.0,84,0.01,,BKN046,0.42,VWS V14.01,2013-02-23 22:14:00,
2013-02-23 14:19:00,43.4,39.8,30.29,SE,132,0.0,1.0,87,0.01,,BKN046,0.42,VWS V14.01,2013-02-23 22:19:00,
2013-02-23 14:24:00,43.8,40.8,30.29,ESE,112,0.0,3.0,89,0.01,,OVC050,0.42,VWS V14.01,2013-02-23 22:24:00,
2013-02-23 14:29:00,44.6,41.6,30.30,SW,232,1.0,2.0,89,0.01,,OVC050,0.42,VWS V14.01,2013-02-23 22:29:00,
2013-02-23 14:34:00,45.3,41.7,30.30,SE,139,0.0,1.0,87,0.01,,OVC050,0.42,VWS V14.01,2013-02-23 22:34:00,
2013-02-23 14:39:00,45.8,41.9,30.30,SE,145,1.0,3.0,86,0.01,,OVC050,0.42,VWS V14.01,2013-02-23 22:39:00,
2013-02-23 14:44:00,46.1,41.8,30.30,East,94,4.0,4.0,85,0.01,,BKN048,0.42,VWS V14.01,2013-02-23 22:44:00,
2013-02-23 14:49:00,46.5,40.7,30.30,ESE,117,8.0,12.0,80,0.01,,BKN048,0.42,VWS V14.01,2013-02-23 22:49:00,
2013-02-23 14:54:00,46.6,40.1,30.30,ESE,103,2.0,9.0,78,0.01,,BKN048,0.42,VWS V14.01,2013-02-23 22:54:00,
2013-02-23 14:59:00,46.5,39.7,30.31,ESE,106,6.0,12.0,77,0.01,,BKN048,0.42,VWS V14.01,2013-02-23 22:59:00,
2013-02-23 15:04:00,46.6,39.8,30.31,East,83,4.0,10.0,77,0.00,,BKN060,0.42,VWS V14.01,2013-02-23 23:04:00,
2013-02-23 15:09:00,46.5,39.0,30.31,East,101,4.0,12.0,75,0.00,,BKN060,0.42,VWS V14.01,2013-02-23 23:09:00,
2013-02-23 15:14:00,46.3,40.5,30.31,ESE,117,6.0,6.0,80,0.00,,BKN060,0.42,VWS V14.01,2013-02-23 23:14:00,
2013-02-23 15:19:00,45.9,39.4,30.31,ESE,109,0.0,3.0,78,0.00,,BKN060,0.42,VWS V14.01,2013-02-23 23:19:00,
2013-02-23 15:24:00,45.9,40.1,30.31,WSW,252,2.0,4.0,80,0.00,,OVC060,0.42,VWS V14.01,2013-02-23 23:24:00,
2013-02-23 15:29:00,46.3,39.8,30.31,East,92,4.0,4.0,78,0.00,,OVC060,0.42,VWS V14.01,2013-02-23 23:29:00,
2013-02-23 15:34:00,46.4,39.6,30.31,ESE,104,3.0,3.0,77,0.00,,OVC060,0.42,VWS V14.01,2013-02-23 23:34:00,
2013-02-23 15:39:00,46.0,39.2,30.31,ESE,115,2.0,7.0,77,0.00,,OVC060,0.42,VWS V14.01,2013-02-23 23:39:00,
2013-02-23 15:44:00,45.8,39.3,30.31,East,81,4.0,5.0,78,0.00,,OVC070,0.42,VWS V14.01,2013-02-23 23:44:00,
2013-02-23 15:49:00,45.5,39.4,30.31,East,87,3.0,5.0,79,0.00,,OVC070,0.42,VWS V14.01,2013-02-23 23:49:00,
2013-02-23 15:54:00,45.3,39.5,30.32,ESE,105,4.0,4.0,80,0.00,,OVC070,0.42,VWS V14.01,2013-02-23 23:54:00,
2013-02-23 15:59:00,45.1,39.6,30.32,East,96,1.0,4.0,81,0.00,,OVC070,0.42,VWS V14.01,2013-02-23 23:59:00,
2013-02-23 16:04:00,45.0,39.8,30.32,East,96,0.0,0.0,82,0.00,,OVC080,0.42,VWS V14.01,2013-02-24 00:04:00,
2013-02-23 16:09:00,45.0,40.2,30.32,East,90,0.0,1.0,83,0.00,,OVC080,0.42,VWS V14.01,2013-02-24 00:09:00,
2013-02-23 16:14:00,45.2,40.7,30.32,East,90,0.0,0.0,84,0.00,,OVC080,0.42,VWS V14.01,2013-02-24 00:14:00,
2013-02-23 16:19:00,45.1,40.2,30.32,East,90,0.0,0.0,83,0.00,,OVC080,0.42,VWS V14.01,2013-02-24 00:19:00,
2013-02-23 16:24:00,45.0,40.2,30.32,South,184,0.0,3.0,83,0.00,,OVC080,0.42,VWS V14.01,2013-02-24 00:24:00,
2013-02-23 16:29:00,44.9,39.1,30.32,ESE,107,6.0,6.0,80,0.00,,OVC080,0.42,VWS V14.01,2013-02-24 00:29:00,
2013-02-23 16:34:00,44.9,38.5,30.33,ESE,116,4.0,10.0,78,0.00,,OVC080,0.42,VWS V14.01,2013-02-24 00:34:00,
2013-02-23 16:39:00,45.0,38.9,30.33,ESE,109,2.0,3.0,79,0.00,,OVC080,0.42,VWS V14.01,2013-02-24 00:39:00,
2013-02-23 16:44:00,44.9,38.8,30.33,ESE,119,3.0,5.0,79,0.00,,OVC055,0.42,VWS V14.01,2013-02-24 00:44:00,
2013-02-23 16:49:00,44.9,38.8,30.33,East,100,0.0,2.0,79,0.00,,OVC055,0.42,VWS V14.01,2013-02-24 00:49:00,
2013-02-23 16:54:00,44.9,38.5,30.33,NE,43,2.0,3.0,78,0.00,,OVC055,0.42,VWS V14.01,2013-02-24 00:54:00,
2013-02-23 16:59:00,44.9,38.1,30.33,ESE,121,3.0,3.0,77,0.00,,OVC055,0.42,VWS V14.01,2013-02-24 00:59:00,
2013-02-23 17:04:00,44.9,37.8,30.33,East,100,0.0,3.0,76,0.00,,BKN055,0.42,VWS V14.01,2013-02-24 01:04:00,
2013-02-23 17:09:00,44.8,38.0,30.33,East,99,0.0,1.0,77,0.00,,BKN055,0.42,VWS V14.01,2013-02-24 01:09:00,
2013-02-23 17:14:00,44.5,37.4,30.33,East,101,0.0,2.0,76,0.00,,BKN055,0.42,VWS V14.01,2013-02-24 01:14:00,
2013-02-23 17:19:00,44.6,36.8,30.34,ESE,117,0.0,6.0,74,0.00,,BKN055,0.42,VWS V14.01,2013-02-24 01:19:00,
2013-02-23 17:24:00,44.7,37.3,30.34,East,98,2.0,3.0,75,0.00,,CLR,0.42,VWS V14.01,2013-02-24 01:24:00,
2013-02-23 17:29:00,44.6,36.5,30.34,East,101,2.0,6.0,73,0.00,,CLR,0.42,VWS V14.01,2013-02-24 01:29:00,
2013-02-23 17:34:00,44.5,37.1,30.34,East,96,2.0,2.0,75,0.00,,CLR,0.42,VWS V14.01,2013-02-24 01:34:00,
2013-02-23 17:39:00,44.3,36.5,30.34,ENE,72,1.0,6.0,74,0.00,,CLR,0.42,VWS V14.01,2013-02-24 01:39:00,
2013-02-23 17:44:00,44.0,36.9,30.35,ESE,106,2.0,2.0,76,0.00,,SCT055,0.42,VWS V14.01,2013-02-24 01:44:00,
2013-02-23 17:49:00,43.7,37.0,30.35,East,101,1.0,2.0,77,0.00,,SCT055,0.42,VWS V14.01,2013-02-24 01:49:00,
2013-02-23 17:54:00,43.4,37.0,30.35,East,101,0.0,0.0,78,0.00,,SCT055,0.42,VWS V14.01,2013-02-24 01:54:00,
2013-02-23 17:59:00,42.9,36.5,30.35,NE,53,0.0,2.0,78,0.00,,SCT055,0.42,VWS V14.01,2013-02-24 01:59:00,
2013-02-23 18:04:00,42.4,36.7,30.36,SSE,159,0.0,2.0,80,0.00,,FEW044,0.42,VWS V14.01,2013-02-24 02:04:00,
2013-02-23 18:09:00,42.2,36.5,30.36,SSE,159,0.0,0.0,80,0.00,,FEW044,0.42,VWS V14.01,2013-02-24 02:09:00,
2013-02-23 18:14:00,41.7,36.6,30.36,SSE,159,0.0,1.0,82,0.00,,FEW044,0.42,VWS V14.01,2013-02-24 02:14:00,
2013-02-23 18:19:00,41.2,36.7,30.36,SSE,159,0.0,1.0,84,0.00,,FEW044,0.42,VWS V14.01,2013-02-24 02:19:00,
2013-02-23 18:24:00,40.8,36.9,30.37,SSE,159,0.0,0.0,86,0.00,,BKN050,0.42,VWS V14.01,2013-02-24 02:24:00,
2013-02-23 18:29:00,40.5,36.7,30.37,SSE,159,0.0,0.0,86,0.00,,BKN050,0.42,VWS V14.01,2013-02-24 02:29:00,
2013-02-23 18:34:00,40.4,36.8,30.37,SSE,157,0.0,0.0,87,0.00,,BKN050,0.42,VWS V14.01,2013-02-24 02:34:00,
2013-02-23 18:39:00,40.2,36.9,30.37,SSE,157,0.0,1.0,88,0.00,,BKN050,0.42,VWS V14.01,2013-02-24 02:39:00,
2013-02-23 18:44:00,40.4,37.1,30.38,East,87,0.0,4.0,88,0.00,,BKN050,0.42,VWS V14.01,2013-02-24 02:44:00,
2013-02-23 18:49:00,41.0,37.1,30.38,East,79,4.0,6.0,86,0.00,,BKN050,0.42,VWS V14.01,2013-02-24 02:49:00,
2013-02-23 18:54:00,41.3,37.1,30.38,NW,323,1.0,2.0,85,0.00,,BKN050,0.42,VWS V14.01,2013-02-24 02:54:00,
2013-02-23 18:59:00,41.2,37.0,30.38,NE,51,1.0,2.0,85,0.00,,BKN050,0.42,VWS V14.01,2013-02-24 02:59:00,
2013-02-23 19:04:00,41.0,37.1,30.39,ENE,77,0.0,0.0,86,0.00,,BKN050,0.42,VWS V14.01,2013-02-24 03:04:00,
2013-02-23 19:09:00,41.0,37.1,30.39,ENE,77,0.0,1.0,86,0.00,,BKN044,0.42,VWS V14.01,2013-02-24 03:09:00,
2013-02-23 19:14:00,40.6,37.0,30.39,ENE,76,0.0,1.0,87,0.00,,BKN044,0.42,VWS V14.01,2013-02-24 03:14:00,
2013-02-23 19:19:00,40.0,36.7,30.39,ENE,76,0.0,0.0,88,0.00,,BKN044,0.42,VWS V14.01,2013-02-24 03:19:00,
2013-02-23 19:24:00,39.5,36.5,30.39,ESE,123,0.0,1.0,89,0.00,,BKN044,0.42,VWS V14.01,2013-02-24 03:24:00,
2013-02-23 19:29:00,39.2,36.5,30.39,SE,125,0.0,1.0,90,0.00,,BKN050,0.42,VWS V14.01,2013-02-24 03:29:00,
2013-02-23 19:34:00,38.9,36.5,30.39,ESE,123,0.0,0.0,91,0.00,,BKN050,0.42,VWS V14.01,2013-02-24 03:34:00,
2013-02-23 19:39:00,38.5,36.1,30.39,ESE,123,0.0,0.0,91,0.00,,BKN050,0.42,VWS V14.01,2013-02-24 03:39:00,
2013-02-23 19:44:00,38.2,36.1,30.39,SE,125,0.0,0.0,92,0.00,,BKN050,0.42,VWS V14.01,2013-02-24 03:44:00,
2013-02-23 19:49:00,38.0,36.2,30.39,SE,126,0.0,0.0,93,0.00,,BKN050,0.42,VWS V14.01,2013-02-24 03:49:00,
2013-02-23 19:54:00,37.8,36.0,30.40,SE,126,0.0,0.0,93,0.00,,BKN050,0.42,VWS V14.01,2013-02-24 03:54:00,
2013-02-23 19:59:00,37.5,35.7,30.39,SE,125,0.0,0.0,93,0.00,,BKN050,0.42,VWS V14.01,2013-02-24 03:59:00,
2013-02-23 20:04:00,37.3,35.7,30.40,SE,125,0.0,0.0,94,0.00,,BKN050,0.42,VWS V14.01,2013-02-24 04:04:00,
2013-02-23 20:09:00,37.1,35.5,30.40,SE,125,0.0,0.0,94,0.00,,BKN047,0.42,VWS V14.01,2013-02-24 04:09:00,
2013-02-23 20:14:00,37.1,35.5,30.40,SE,126,0.0,1.0,94,0.00,,BKN047,0.42,VWS V14.01,2013-02-24 04:14:00,
2013-02-23 20:19:00,37.1,35.8,30.41,SE,126,0.0,0.0,95,0.00,,BKN047,0.42,VWS V14.01,2013-02-24 04:19:00,
2013-02-23 20:24:00,37.1,35.8,30.40,SE,125,0.0,1.0,95,0.00,,OVC049,0.42,VWS V14.01,2013-02-24 04:24:00,
2013-02-23 20:29:00,37.2,35.9,30.41,SE,125,0.0,0.0,95,0.00,,OVC049,0.42,VWS V14.01,2013-02-24 04:29:00,
2013-02-23 20:34:00,37.0,35.7,30.41,SE,126,1.0,1.0,95,0.00,,OVC049,0.42,VWS V14.01,2013-02-24 04:34:00,
2013-02-23 20:39:00,36.8,35.5,30.41,ESE,123,0.0,0.0,95,0.00,,OVC049,0.42,VWS V14.01,2013-02-24 04:39:00,
2013-02-23 20:44:00,36.8,35.5,30.40,SE,126,0.0,0.0,95,0.00,,OVC050,0.42,VWS V14.01,2013-02-24 04:44:00,
2013-02-23 20:49:00,36.7,35.4,30.41,SE,125,0.0,0.0,95,0.00,,OVC050,0.42,VWS V14.01,2013-02-24 04:49:00,
2013-02-23 20:54:00,36.6,35.3,30.41,SE,125,0.0,0.0,95,0.00,,OVC050,0.42,VWS V14.01,2013-02-24 04:54:00,
2013-02-23 20:59:00,36.4,35.1,30.40,SE,126,0.0,0.0,95,0.00,,OVC050,0.42,VWS V14.01,2013-02-24 04:59:00,
2013-02-23 21:00:00,36.4,35.1,30.40,SE,125,0.0,0.0,95,0.00,,OVC050,0.42,VWS V14.01,2013-02-24 05:00:00,
2013-02-23 21:05:00,36.3,35.0,30.41,SE,125,0.0,0.0,95,0.00,,OVC050,0.42,VWS V14.01,2013-02-24 05:05:00,
2013-02-23 21:10:00,36.4,35.4,30.41,SE,125,0.0,0.0,96,0.00,,OVC050,0.42,VWS V14.01,2013-02-24 05:10:00,
2013-02-23 21:15:00,36.5,35.5,30.41,SE,125,0.0,1.0,96,0.00,,OVC050,0.42,VWS V14.01,2013-02-24 05:15:00,
2013-02-23 21:20:00,36.4,35.4,30.41,SE,126,0.0,0.0,96,0.00,,OVC050,0.42,VWS V14.01,2013-02-24 05:20:00,
2013-02-23 21:25:00,36.4,35.4,30.41,SE,125,0.0,0.0,96,0.00,,SCT042,0.42,VWS V14.01,2013-02-24 05:25:00,
2013-02-23 21:30:00,36.1,35.1,30.41,SE,126,0.0,0.0,96,0.00,,SCT042,0.42,VWS V14.01,2013-02-24 05:30:00,
2013-02-23 21:35:00,35.9,34.9,30.41,SE,124,0.0,0.0,96,0.00,,SCT042,0.42,VWS V14.01,2013-02-24 05:35:00,
2013-02-23 21:40:00,35.9,34.9,30.41,SE,125,0.0,0.0,96,0.00,,SCT042,0.42,VWS V14.01,2013-02-24 05:40:00,
2013-02-23 21:45:00,35.8,34.8,30.41,SE,126,0.0,0.0,96,0.00,,CLR,0.42,VWS V14.01,2013-02-24 05:45:00,
2013-02-23 21:50:00,35.7,34.7,30.42,SE,125,0.0,0.0,96,0.00,,CLR,0.42,VWS V14.01,2013-02-24 05:50:00,
2013-02-23 21:55:00,35.5,34.5,30.41,SE,125,0.0,0.0,96,0.00,,CLR,0.42,VWS V14.01,2013-02-24 05:55:00,
2013-02-23 22:00:00,35.2,34.2,30.42,SE,125,0.0,0.0,96,0.00,,CLR,0.42,VWS V14.01,2013-02-24 06:00:00,
2013-02-23 22:05:00,35.5,34.5,30.42,SE,126,0.0,0.0,96,0.00,,BKN037,0.42,VWS V14.01,2013-02-24 06:05:00,
2013-02-23 22:10:00,35.6,34.6,30.41,SE,126,0.0,0.0,96,0.00,,BKN037,0.42,VWS V14.01,2013-02-24 06:10:00,
2013-02-23 22:15:00,35.4,34.4,30.42,SE,125,0.0,0.0,96,0.00,,BKN037,0.42,VWS V14.01,2013-02-24 06:15:00,
2013-02-23 22:20:00,35.4,34.4,30.41,SE,126,0.0,0.0,96,0.00,,BKN037,0.42,VWS V14.01,2013-02-24 06:20:00,
2013-02-23 22:25:00,35.6,34.6,30.41,SE,125,0.0,0.0,96,0.00,,OVC034,0.42,VWS V14.01,2013-02-24 06:25:00,
2013-02-23 22:30:00,35.7,34.7,30.42,SE,126,0.0,0.0,96,0.00,,OVC034,0.42,VWS V14.01,2013-02-24 06:30:00,
2013-02-23 22:35:00,35.7,34.7,30.42,SE,125,0.0,0.0,96,0.00,,OVC034,0.42,VWS V14.01,2013-02-24 06:35:00,
2013-02-23 22:40:00,35.8,34.8,30.42,SE,126,0.0,0.0,96,0.00,,OVC034,0.42,VWS V14.01,2013-02-24 06:40:00,
2013-02-23 22:45:00,36.1,35.1,30.42,SE,125,0.0,0.0,96,0.00,,OVC038,0.42,VWS V14.01,2013-02-24 06:45:00,
2013-02-23 22:50:00,36.3,35.3,30.42,SE,125,0.0,0.0,96,0.00,,OVC038,0.42,VWS V14.01,2013-02-24 06:50:00,
2013-02-23 22:55:00,36.5,35.5,30.42,SE,126,0.0,0.0,96,0.00,,OVC038,0.42,VWS V14.01,2013-02-24 06:55:00,
2013-02-23 23:00:00,36.6,35.6,30.42,SE,125,0.0,0.0,96,0.00,,OVC038,0.42,VWS V14.01,2013-02-24 07:00:00,
2013-02-23 23:05:00,36.7,35.7,30.42,SE,126,0.0,0.0,96,0.00,,OVC065,0.42,VWS V14.01,2013-02-24 07:05:00,
2013-02-23 23:10:00,36.9,35.9,30.42,SE,125,0.0,0.0,96,0.00,,OVC065,0.42,VWS V14.01,2013-02-24 07:10:00,
2013-02-23 23:15:00,37.0,36.0,30.42,SE,125,0.0,0.0,96,0.00,,OVC065,0.42,VWS V14.01,2013-02-24 07:15:00,
2013-02-23 23:20:00,37.2,36.2,30.42,SE,125,0.0,0.0,96,0.00,,OVC065,0.42,VWS V14.01,2013-02-24 07:20:00,
2013-02-23 23:25:00,37.4,36.4,30.42,SE,126,0.0,0.0,96,0.00,,OVC065,0.42,VWS V14.01,2013-02-24 07:25:00,
2013-02-23 23:30:00,37.5,36.5,30.42,SE,125,0.0,0.0,96,0.00,,OVC065,0.42,VWS V14.01,2013-02-24 07:30:00,
2013-02-23 23:35:00,37.5,36.5,30.42,ESE,123,0.0,0.0,96,0.00,,OVC065,0.42,VWS V14.01,2013-02-24 07:35:00,
2013-02-23 23:40:00,37.6,36.6,30.42,South,184,1.0,1.0,96,0.00,,OVC065,0.42,VWS V14.01,2013-02-24 07:40:00,
2013-02-23 23:45:00,37.8,36.8,30.42,South,184,0.0,0.0,96,0.00,,OVC065,0.42,VWS V14.01,2013-02-24 07:45:00,
2013-02-23 23:50:00,37.9,36.9,30.42,South,184,0.0,0.0,96,0.00,,OVC065,0.42,VWS V14.01,2013-02-24 07:50:00,
2013-02-23 23:55:00,38.0,37.0,30.42,WNW,300,0.0,1.0,96,0.00,,OVC065,0.42,VWS V14.01,2013-02-24 07:55:00,